Year,Month,Day,Hour,Minute,Value (Times are PST for temperature in C)
2013,11,26,00,00,4.30
2013,11,26,00,01,4.30
2013,11,26,00,02,4.30
2013,11,26,00,03,4.30
2013,11,26,00,04,4.30
2013,11,26,00,05,4.30
2013,11,26,00,06,4.40
2013,11,26,00,07,4.40
2013,11,26,00,08,4.40
2013,11,26,00,09,4.40
2013,11,26,00,10,4.50
2013,11,26,00,11,4.50
2013,11,26,00,12,4.50
2013,11,26,00,13,4.60
2013,11,26,00,14,4.60
2013,11,26,00,15,4.60
2013,11,26,00,16,4.60
2013,11,26,00,17,4.60
2013,11,26,00,18,4.60
2013,11,26,00,19,4.60
2013,11,26,00,20,4.60
2013,11,26,00,21,4.60
2013,11,26,00,22,4.60
2013,11,26,00,23,4.60
2013,11,26,00,24,4.60
2013,11,26,00,25,4.60
2013,11,26,00,26,4.60
2013,11,26,00,27,4.60
2013,11,26,00,28,4.60
2013,11,26,00,29,4.60
2013,11,26,00,30,4.60
2013,11,26,00,31,4.60
2013,11,26,00,32,4.60
2013,11,26,00,33,4.60
2013,11,26,00,34,4.60
2013,11,26,00,35,4.60
2013,11,26,00,36,4.50
2013,11,26,00,37,4.50
2013,11,26,00,38,4.40
2013,11,26,00,39,4.40
2013,11,26,00,40,4.40
2013,11,26,00,41,4.40
2013,11,26,00,42,4.40
2013,11,26,00,43,4.40
2013,11,26,00,44,4.40
2013,11,26,00,45,4.40
2013,11,26,00,46,4.40
2013,11,26,00,47,4.40
2013,11,26,00,48,4.40
2013,11,26,00,49,4.30
2013,11,26,00,50,4.30
2013,11,26,00,51,4.20
2013,11,26,00,52,4.10
2013,11,26,00,53,4.10
2013,11,26,00,54,4.10
2013,11,26,00,55,4.10
2013,11,26,00,56,4.10
2013,11,26,00,57,4.20
2013,11,26,00,58,4.30
2013,11,26,00,59,4.40
2013,11,26,01,00,4.50
2013,11,26,01,01,4.60
2013,11,26,01,02,4.70
2013,11,26,01,03,4.80
2013,11,26,01,04,4.90
2013,11,26,01,05,5.00
2013,11,26,01,06,5.00
2013,11,26,01,07,5.10
2013,11,26,01,08,5.10
2013,11,26,01,09,5.20
2013,11,26,01,10,5.20
2013,11,26,01,11,5.30
2013,11,26,01,12,5.30
2013,11,26,01,13,5.30
2013,11,26,01,14,5.30
2013,11,26,01,15,5.30
2013,11,26,01,16,5.30
2013,11,26,01,17,5.20
2013,11,26,01,18,5.10
2013,11,26,01,19,5.00
2013,11,26,01,20,4.90
2013,11,26,01,21,4.80
2013,11,26,01,22,4.70
2013,11,26,01,23,4.50
2013,11,26,01,24,4.50
2013,11,26,01,25,4.40
2013,11,26,01,26,4.30
2013,11,26,01,27,4.20
2013,11,26,01,28,4.10
2013,11,26,01,29,4.00
2013,11,26,01,30,4.00
2013,11,26,01,31,3.90
2013,11,26,01,32,3.90
2013,11,26,01,33,3.90
2013,11,26,01,34,3.90
2013,11,26,01,35,4.00
2013,11,26,01,36,4.00
2013,11,26,01,37,4.10
2013,11,26,01,38,4.10
2013,11,26,01,39,4.20
2013,11,26,01,40,4.20
2013,11,26,01,41,4.30
2013,11,26,01,42,4.30
2013,11,26,01,43,4.40
2013,11,26,01,44,4.40
2013,11,26,01,45,4.40
2013,11,26,01,46,4.50
2013,11,26,01,47,4.50
2013,11,26,01,48,4.60
2013,11,26,01,49,4.60
2013,11,26,01,50,4.60
2013,11,26,01,51,4.60
2013,11,26,01,52,4.60
2013,11,26,01,53,4.50
2013,11,26,01,54,4.50
2013,11,26,01,55,4.50
2013,11,26,01,56,4.40
2013,11,26,01,57,4.40
2013,11,26,01,58,4.50
2013,11,26,01,59,4.50
2013,11,26,02,00,4.50
2013,11,26,02,01,4.50
2013,11,26,02,02,4.50
2013,11,26,02,03,4.40
2013,11,26,02,04,4.30
2013,11,26,02,05,4.30
2013,11,26,02,06,4.30
2013,11,26,02,07,4.30
2013,11,26,02,08,4.30
2013,11,26,02,09,4.30
2013,11,26,02,10,4.30
2013,11,26,02,11,4.40
2013,11,26,02,12,4.50
2013,11,26,02,13,4.60
2013,11,26,02,14,4.60
2013,11,26,02,15,4.70
2013,11,26,02,16,4.70
2013,11,26,02,17,4.70
2013,11,26,02,18,4.70
2013,11,26,02,19,4.70
2013,11,26,02,20,4.60
2013,11,26,02,21,4.50
2013,11,26,02,22,4.40
2013,11,26,02,23,4.40
2013,11,26,02,24,4.30
2013,11,26,02,25,4.30
2013,11,26,02,26,4.20
2013,11,26,02,27,4.20
2013,11,26,02,28,4.10
2013,11,26,02,29,4.10
2013,11,26,02,30,4.10
2013,11,26,02,31,4.20
2013,11,26,02,32,4.20
2013,11,26,02,33,4.20
2013,11,26,02,34,4.20
2013,11,26,02,35,4.20
2013,11,26,02,36,4.10
2013,11,26,02,37,4.00
2013,11,26,02,38,3.90
2013,11,26,02,39,3.80
2013,11,26,02,40,3.70
2013,11,26,02,41,3.70
2013,11,26,02,42,3.60
2013,11,26,02,43,3.60
2013,11,26,02,44,3.50
2013,11,26,02,45,3.50
2013,11,26,02,46,3.50
2013,11,26,02,47,3.50
2013,11,26,02,48,3.60
2013,11,26,02,49,3.60
2013,11,26,02,50,3.70
2013,11,26,02,51,3.70
2013,11,26,02,52,3.80
2013,11,26,02,53,3.90
2013,11,26,02,54,3.90
2013,11,26,02,55,3.90
2013,11,26,02,56,3.90
2013,11,26,02,57,4.00
2013,11,26,02,58,4.00
2013,11,26,02,59,4.10
2013,11,26,03,00,4.10
2013,11,26,03,01,4.10
2013,11,26,03,02,4.20
2013,11,26,03,03,4.20
2013,11,26,03,06,4.20
2013,11,26,03,07,4.30
2013,11,26,03,08,4.30
2013,11,26,03,09,4.40
2013,11,26,03,10,4.40
2013,11,26,03,11,4.50
2013,11,26,03,12,4.50
2013,11,26,03,13,4.40
2013,11,26,03,14,4.30
2013,11,26,03,15,4.30
2013,11,26,03,16,4.30
2013,11,26,03,17,4.40
2013,11,26,03,18,4.40
2013,11,26,03,19,4.50
2013,11,26,03,20,4.60
2013,11,26,03,21,4.60
2013,11,26,03,22,4.70
2013,11,26,03,23,4.80
2013,11,26,03,24,4.90
2013,11,26,03,25,5.00
2013,11,26,03,26,5.10
2013,11,26,03,27,5.10
2013,11,26,03,28,5.20
2013,11,26,03,29,5.30
2013,11,26,03,30,5.30
2013,11,26,03,31,5.30
2013,11,26,03,32,5.30
2013,11,26,03,33,5.30
2013,11,26,03,34,5.30
2013,11,26,03,35,5.40
2013,11,26,03,36,5.40
2013,11,26,03,37,5.40
2013,11,26,03,38,5.40
2013,11,26,03,39,5.40
2013,11,26,03,40,5.50
2013,11,26,03,41,5.50
2013,11,26,03,42,5.50
2013,11,26,03,43,5.60
2013,11,26,03,44,5.60
2013,11,26,03,45,5.60
2013,11,26,03,46,5.60
2013,11,26,03,47,5.60
2013,11,26,03,48,5.60
2013,11,26,03,49,5.60
2013,11,26,03,50,5.60
2013,11,26,03,51,5.60
2013,11,26,03,52,5.60
2013,11,26,03,53,5.60
2013,11,26,03,54,5.60
2013,11,26,03,55,5.60
2013,11,26,03,56,5.60
2013,11,26,03,57,5.60
2013,11,26,03,58,5.60
2013,11,26,03,59,5.60
2013,11,26,04,00,5.60
2013,11,26,04,01,5.60
2013,11,26,04,02,5.60
2013,11,26,04,03,5.50
2013,11,26,04,04,5.40
2013,11,26,04,05,5.20
2013,11,26,04,06,5.00
2013,11,26,04,07,4.80
2013,11,26,04,08,4.70
2013,11,26,04,09,4.60
2013,11,26,04,10,4.60
2013,11,26,04,11,4.60
2013,11,26,04,12,4.60
2013,11,26,04,13,4.70
2013,11,26,04,14,4.80
2013,11,26,04,15,4.90
2013,11,26,04,16,5.00
2013,11,26,04,17,5.10
2013,11,26,04,18,5.20
2013,11,26,04,19,5.20
2013,11,26,04,20,5.30
2013,11,26,04,21,5.30
2013,11,26,04,22,5.30
2013,11,26,04,23,5.30
2013,11,26,04,24,5.30
2013,11,26,04,25,5.30
2013,11,26,04,26,5.30
2013,11,26,04,27,5.30
2013,11,26,04,28,5.30
2013,11,26,04,29,5.30
2013,11,26,04,30,5.30
2013,11,26,04,31,5.30
2013,11,26,04,32,5.30
2013,11,26,04,33,5.30
2013,11,26,04,34,5.30
2013,11,26,04,35,5.30
2013,11,26,04,36,5.30
2013,11,26,04,37,5.30
2013,11,26,04,38,5.30
2013,11,26,04,39,5.30
2013,11,26,04,40,5.30
2013,11,26,04,41,5.30
2013,11,26,04,42,5.30
2013,11,26,04,43,5.30
2013,11,26,04,44,5.30
2013,11,26,04,45,5.30
2013,11,26,04,46,5.20
2013,11,26,04,47,5.20
2013,11,26,04,48,5.20
2013,11,26,04,49,5.20
2013,11,26,04,50,5.20
2013,11,26,04,51,5.20
2013,11,26,04,52,5.20
2013,11,26,04,53,5.20
2013,11,26,04,54,5.20
2013,11,26,04,55,5.20
2013,11,26,04,56,5.10
2013,11,26,04,57,5.10
2013,11,26,04,58,5.10
2013,11,26,04,59,5.10
2013,11,26,05,00,5.10
2013,11,26,05,01,5.10
2013,11,26,05,02,5.10
2013,11,26,05,03,5.10
2013,11,26,05,04,5.00
2013,11,26,05,05,4.90
2013,11,26,05,06,4.90
2013,11,26,05,07,4.80
2013,11,26,05,08,4.80
2013,11,26,05,09,4.80
2013,11,26,05,10,4.80
2013,11,26,05,11,4.80
2013,11,26,05,12,4.80
2013,11,26,05,13,4.80
2013,11,26,05,14,4.80
2013,11,26,05,15,4.80
2013,11,26,05,16,4.90
2013,11,26,05,17,4.90
2013,11,26,05,18,4.90
2013,11,26,05,19,4.90
2013,11,26,05,20,4.90
2013,11,26,05,21,5.00
2013,11,26,05,22,5.00
2013,11,26,05,23,5.00
2013,11,26,05,24,5.00
2013,11,26,05,25,5.00
2013,11,26,05,26,4.90
2013,11,26,05,27,4.90
2013,11,26,05,28,4.90
2013,11,26,05,29,4.80
2013,11,26,05,30,4.80
2013,11,26,05,31,4.80
2013,11,26,05,32,4.80
2013,11,26,05,33,4.80
2013,11,26,05,34,4.70
2013,11,26,05,35,4.70
2013,11,26,05,36,4.70
2013,11,26,05,37,4.70
2013,11,26,05,38,4.80
2013,11,26,05,39,4.80
2013,11,26,05,40,4.80
2013,11,26,05,41,4.80
2013,11,26,05,42,4.80
2013,11,26,05,43,4.80
2013,11,26,05,44,4.90
2013,11,26,05,45,4.90
2013,11,26,05,46,4.90
2013,11,26,05,47,4.90
2013,11,26,05,48,5.00
2013,11,26,05,49,5.00
2013,11,26,05,50,5.00
2013,11,26,05,51,5.00
2013,11,26,05,52,5.00
2013,11,26,05,53,5.00
2013,11,26,05,54,5.00
2013,11,26,05,55,5.00
2013,11,26,05,56,5.00
2013,11,26,05,57,5.00
2013,11,26,05,58,4.90
2013,11,26,05,59,4.90
2013,11,26,06,00,4.90
2013,11,26,06,01,4.90
2013,11,26,06,02,4.90
2013,11,26,06,03,4.90
2013,11,26,06,04,4.90
2013,11,26,06,05,4.90
2013,11,26,06,06,4.90
2013,11,26,06,07,4.90
2013,11,26,06,08,4.90
2013,11,26,06,09,4.90
2013,11,26,06,10,4.90
2013,11,26,06,11,4.90
2013,11,26,06,12,5.00
2013,11,26,06,13,5.00
2013,11,26,06,14,5.00
2013,11,26,06,15,5.10
2013,11,26,06,16,5.10
2013,11,26,06,17,5.10
2013,11,26,06,18,5.10
2013,11,26,06,19,5.00
2013,11,26,06,20,5.00
2013,11,26,06,21,4.90
2013,11,26,06,22,4.80
2013,11,26,06,23,4.80
2013,11,26,06,24,4.80
2013,11,26,06,25,4.90
2013,11,26,06,26,4.90
2013,11,26,06,27,4.90
2013,11,26,06,28,4.90
2013,11,26,06,29,4.90
2013,11,26,06,30,4.90
2013,11,26,06,31,4.90
2013,11,26,06,32,5.00
2013,11,26,06,33,4.90
2013,11,26,06,34,4.90
2013,11,26,06,35,4.80
2013,11,26,06,36,4.80
2013,11,26,06,37,4.70
2013,11,26,06,38,4.70
2013,11,26,06,39,4.60
2013,11,26,06,40,4.60
2013,11,26,06,41,4.60
2013,11,26,06,42,4.50
2013,11,26,06,43,4.50
2013,11,26,06,44,4.50
2013,11,26,06,45,4.50
2013,11,26,06,46,4.50
2013,11,26,06,47,4.50
2013,11,26,06,48,4.50
2013,11,26,06,49,4.30
2013,11,26,06,50,4.20
2013,11,26,06,51,4.10
2013,11,26,06,52,4.10
2013,11,26,06,53,4.00
2013,11,26,06,54,4.00
2013,11,26,06,55,4.00
2013,11,26,06,56,4.10
2013,11,26,06,57,4.10
2013,11,26,06,58,4.10
2013,11,26,06,59,4.20
2013,11,26,07,00,4.20
2013,11,26,07,01,4.20
2013,11,26,07,02,4.30
2013,11,26,07,03,4.30
2013,11,26,07,04,4.30
2013,11,26,07,05,4.30
2013,11,26,07,06,4.40
2013,11,26,07,07,4.40
2013,11,26,07,08,4.50
2013,11,26,07,09,4.50
2013,11,26,07,10,4.60
2013,11,26,07,11,4.60
2013,11,26,07,12,4.70
2013,11,26,07,13,4.80
2013,11,26,07,14,4.80
2013,11,26,07,15,4.90
2013,11,26,07,16,5.00
2013,11,26,07,17,5.10
2013,11,26,07,18,5.10
2013,11,26,07,19,5.10
2013,11,26,07,20,5.10
2013,11,26,07,21,5.10
2013,11,26,07,22,5.00
2013,11,26,07,23,5.00
2013,11,26,07,24,5.00
2013,11,26,07,25,5.00
2013,11,26,07,26,4.90
2013,11,26,07,27,4.90
2013,11,26,07,28,4.80
2013,11,26,07,29,4.80
2013,11,26,07,30,4.80
2013,11,26,07,31,4.80
2013,11,26,07,32,4.80
2013,11,26,07,33,4.80
2013,11,26,07,34,4.80
2013,11,26,07,35,4.80
2013,11,26,07,36,4.90
2013,11,26,07,37,4.90
2013,11,26,07,38,4.90
2013,11,26,07,39,5.00
2013,11,26,07,40,5.00
2013,11,26,07,41,5.00
2013,11,26,07,42,5.00
2013,11,26,07,43,5.00
2013,11,26,07,44,5.00
2013,11,26,07,45,5.00
2013,11,26,07,46,4.90
2013,11,26,07,47,4.90
2013,11,26,07,48,4.90
2013,11,26,07,49,4.80
2013,11,26,07,50,4.80
2013,11,26,07,51,4.80
2013,11,26,07,52,4.80
2013,11,26,07,53,4.80
2013,11,26,07,54,4.80
2013,11,26,07,55,4.80
2013,11,26,07,56,4.90
2013,11,26,07,57,4.90
2013,11,26,07,58,4.90
2013,11,26,07,59,4.90
2013,11,26,08,00,5.00
2013,11,26,08,01,5.00
2013,11,26,08,02,5.00
2013,11,26,08,03,5.10
2013,11,26,08,04,5.10
2013,11,26,08,05,5.10
2013,11,26,08,06,5.10
2013,11,26,08,07,5.10
2013,11,26,08,08,5.10
2013,11,26,08,09,5.10
2013,11,26,08,10,5.10
2013,11,26,08,11,5.10
2013,11,26,08,12,5.10
2013,11,26,08,13,5.10
2013,11,26,08,14,5.10
2013,11,26,08,15,5.10
2013,11,26,08,16,5.10
2013,11,26,08,17,5.20
2013,11,26,08,18,5.20
2013,11,26,08,19,5.20
2013,11,26,08,20,5.20
2013,11,26,08,21,5.20
2013,11,26,08,22,5.30
2013,11,26,08,23,5.30
2013,11,26,08,24,5.30
2013,11,26,08,25,5.30
2013,11,26,08,26,5.40
2013,11,26,08,27,5.40
2013,11,26,08,28,5.40
2013,11,26,08,29,5.40
2013,11,26,08,30,5.40
2013,11,26,08,31,5.40
2013,11,26,08,32,5.40
2013,11,26,08,33,5.40
2013,11,26,08,34,5.30
2013,11,26,08,35,5.30
2013,11,26,08,36,5.30
2013,11,26,08,37,5.20
2013,11,26,08,38,5.20
2013,11,26,08,39,5.20
2013,11,26,08,40,5.30
2013,11,26,08,41,5.40
2013,11,26,08,42,5.50
2013,11,26,08,43,5.60
2013,11,26,08,44,5.70
2013,11,26,08,45,5.70
2013,11,26,08,46,5.70
2013,11,26,08,47,5.70
2013,11,26,08,48,5.70
2013,11,26,08,49,5.80
2013,11,26,08,50,5.80
2013,11,26,08,51,5.80
2013,11,26,08,52,5.80
2013,11,26,08,53,5.90
2013,11,26,08,54,5.90
2013,11,26,08,55,6.00
2013,11,26,08,56,6.10
2013,11,26,08,57,6.10
2013,11,26,08,58,6.10
2013,11,26,08,59,6.10
2013,11,26,09,00,6.20
2013,11,26,09,01,6.20
2013,11,26,09,02,6.20
2013,11,26,09,03,6.20
2013,11,26,09,04,6.20
2013,11,26,09,05,6.20
2013,11,26,09,06,6.20
2013,11,26,09,07,6.30
2013,11,26,09,08,6.30
2013,11,26,09,09,6.30
2013,11,26,09,10,6.30
2013,11,26,09,11,6.30
2013,11,26,09,12,6.30
2013,11,26,09,13,6.30
2013,11,26,09,14,6.40
2013,11,26,09,15,6.40
2013,11,26,09,16,6.40
2013,11,26,09,17,6.50
2013,11,26,09,18,6.40
2013,11,26,09,19,6.40
2013,11,26,09,20,6.40
2013,11,26,09,21,6.30
2013,11,26,09,22,6.20
2013,11,26,09,23,6.20
2013,11,26,09,24,6.10
2013,11,26,09,25,6.10
2013,11,26,09,26,6.10
2013,11,26,09,27,6.00
2013,11,26,09,28,5.90
2013,11,26,09,29,5.90
2013,11,26,09,30,5.90
2013,11,26,09,31,5.90
2013,11,26,09,32,5.90
2013,11,26,09,33,5.90
2013,11,26,09,34,6.00
2013,11,26,09,35,6.10
2013,11,26,09,36,6.20
2013,11,26,09,37,6.20
2013,11,26,09,38,6.30
2013,11,26,09,39,6.30
2013,11,26,09,40,6.40
2013,11,26,09,41,6.40
2013,11,26,09,42,6.40
2013,11,26,09,43,6.40
2013,11,26,09,44,6.50
2013,11,26,09,45,6.50
2013,11,26,09,46,6.50
2013,11,26,09,47,6.50
2013,11,26,09,48,6.50
2013,11,26,09,49,6.50
2013,11,26,09,50,6.50
2013,11,26,09,51,6.50
2013,11,26,09,52,6.50
2013,11,26,09,53,6.50
2013,11,26,09,54,6.50
2013,11,26,09,55,6.60
2013,11,26,09,56,6.60
2013,11,26,09,57,6.60
2013,11,26,09,58,6.60
2013,11,26,09,59,6.60
2013,11,26,10,00,6.60
2013,11,26,10,01,6.60
2013,11,26,10,02,6.60
2013,11,26,10,03,6.60
2013,11,26,10,04,6.60
2013,11,26,10,05,6.50
2013,11,26,10,06,6.50
2013,11,26,10,07,6.50
2013,11,26,10,08,6.50
2013,11,26,10,09,6.50
2013,11,26,10,10,6.50
2013,11,26,10,11,6.50
2013,11,26,10,12,6.40
2013,11,26,10,13,6.40
2013,11,26,10,14,6.40
2013,11,26,10,15,6.40
2013,11,26,10,16,6.40
2013,11,26,10,17,6.40
2013,11,26,10,18,6.40
2013,11,26,10,19,6.40
2013,11,26,10,20,6.40
2013,11,26,10,21,6.50
2013,11,26,10,22,6.50
2013,11,26,10,23,6.60
2013,11,26,10,24,6.70
2013,11,26,10,25,6.70
2013,11,26,10,26,6.70
2013,11,26,10,27,6.70
2013,11,26,10,28,6.70
2013,11,26,10,29,6.80
2013,11,26,10,30,6.80
2013,11,26,10,31,6.90
2013,11,26,10,32,6.90
2013,11,26,10,33,6.90
2013,11,26,10,34,6.90
2013,11,26,10,35,6.80
2013,11,26,10,36,6.80
2013,11,26,10,37,6.80
2013,11,26,10,38,6.80
2013,11,26,10,39,6.80
2013,11,26,10,40,6.80
2013,11,26,10,41,6.80
2013,11,26,10,42,6.80
2013,11,26,10,43,6.80
2013,11,26,10,44,6.70
2013,11,26,10,45,6.70
2013,11,26,10,46,6.60
2013,11,26,10,47,6.60
2013,11,26,10,48,6.60
2013,11,26,10,49,6.50
2013,11,26,10,50,6.50
2013,11,26,10,51,6.50
2013,11,26,10,52,6.50
2013,11,26,10,53,6.50
2013,11,26,10,54,6.60
2013,11,26,10,55,6.60
2013,11,26,10,56,6.60
2013,11,26,10,57,6.60
2013,11,26,10,58,6.70
2013,11,26,10,59,6.70
2013,11,26,11,00,6.80
2013,11,26,11,01,6.90
2013,11,26,11,02,6.90
2013,11,26,11,03,6.90
2013,11,26,11,04,7.00
2013,11,26,11,05,7.10
2013,11,26,11,06,7.20
2013,11,26,11,07,7.20
2013,11,26,11,08,7.30
2013,11,26,11,09,7.40
2013,11,26,11,10,7.40
2013,11,26,11,11,7.40
2013,11,26,11,12,7.50
2013,11,26,11,13,7.60
2013,11,26,11,14,7.70
2013,11,26,11,15,7.70
2013,11,26,11,16,7.70
2013,11,26,11,17,7.70
2013,11,26,11,18,7.70
2013,11,26,11,19,7.70
2013,11,26,11,20,7.70
2013,11,26,11,21,7.70
2013,11,26,11,22,7.70
2013,11,26,11,23,7.70
2013,11,26,11,24,7.60
2013,11,26,11,25,7.60
2013,11,26,11,26,7.60
2013,11,26,11,27,7.70
2013,11,26,11,28,7.70
2013,11,26,11,29,7.70
2013,11,26,11,30,7.70
2013,11,26,11,31,7.70
2013,11,26,11,32,7.70
2013,11,26,11,33,7.70
2013,11,26,11,34,7.70
2013,11,26,11,35,7.70
2013,11,26,11,36,7.70
2013,11,26,11,37,7.70
2013,11,26,11,38,7.70
2013,11,26,11,39,7.80
2013,11,26,11,40,7.80
2013,11,26,11,41,7.90
2013,11,26,11,42,7.90
2013,11,26,11,43,7.90
2013,11,26,11,44,7.90
2013,11,26,11,45,7.90
2013,11,26,11,46,7.90
2013,11,26,11,47,7.90
2013,11,26,11,48,7.90
2013,11,26,11,49,7.90
2013,11,26,11,50,7.90
2013,11,26,11,51,7.90
2013,11,26,11,52,8.00
2013,11,26,11,53,8.00
2013,11,26,11,54,8.00
2013,11,26,11,55,8.00
2013,11,26,11,56,8.10
2013,11,26,11,57,8.20
2013,11,26,11,58,8.20
2013,11,26,11,59,8.20
2013,11,26,12,00,8.30
2013,11,26,12,01,8.30
2013,11,26,12,02,8.30
2013,11,26,12,03,8.30
2013,11,26,12,04,8.20
2013,11,26,12,05,8.20
2013,11,26,12,06,8.10
2013,11,26,12,07,8.10
2013,11,26,12,08,8.10
2013,11,26,12,09,8.00
2013,11,26,12,10,8.00
2013,11,26,12,11,7.90
2013,11,26,12,12,7.90
2013,11,26,12,13,7.90
2013,11,26,12,14,7.90
2013,11,26,12,15,7.90
2013,11,26,12,16,7.90
2013,11,26,12,17,7.90
2013,11,26,12,18,7.90
2013,11,26,12,19,7.90
2013,11,26,12,20,7.90
2013,11,26,12,21,7.90
2013,11,26,12,22,7.90
2013,11,26,12,23,7.90
2013,11,26,12,24,7.90
2013,11,26,12,25,7.90
2013,11,26,12,26,7.90
2013,11,26,12,27,7.80
2013,11,26,12,28,7.80
2013,11,26,12,29,7.90
2013,11,26,12,30,7.90
2013,11,26,12,31,7.90
2013,11,26,12,32,7.90
2013,11,26,12,33,7.90
2013,11,26,12,34,7.90
2013,11,26,12,35,7.90
2013,11,26,12,36,7.90
2013,11,26,12,37,7.90
2013,11,26,12,38,7.80
2013,11,26,12,39,7.80
2013,11,26,12,40,7.70
2013,11,26,12,41,7.70
2013,11,26,12,42,7.70
2013,11,26,12,43,7.70
2013,11,26,12,44,7.60
2013,11,26,12,45,7.60
2013,11,26,12,46,7.60
2013,11,26,12,47,7.60
2013,11,26,12,48,7.70
2013,11,26,12,49,7.70
2013,11,26,12,50,7.70
2013,11,26,12,51,7.70
2013,11,26,12,52,7.70
2013,11,26,12,53,7.70
2013,11,26,12,54,7.80
2013,11,26,12,55,7.80
2013,11,26,12,56,7.80
2013,11,26,12,57,7.80
2013,11,26,12,58,7.80
2013,11,26,12,59,7.80
2013,11,26,13,00,7.80
2013,11,26,13,01,7.90
2013,11,26,13,02,7.90
2013,11,26,13,03,7.90
2013,11,26,13,04,7.90
2013,11,26,13,05,7.90
2013,11,26,13,06,7.90
2013,11,26,13,07,7.90
2013,11,26,13,08,7.90
2013,11,26,13,09,7.90
2013,11,26,13,10,8.00
2013,11,26,13,11,8.00
2013,11,26,13,12,8.10
2013,11,26,13,13,8.10
2013,11,26,13,14,8.10
2013,11,26,13,15,8.00
2013,11,26,13,16,8.00
2013,11,26,13,17,8.00
2013,11,26,13,18,8.00
2013,11,26,13,19,8.10
2013,11,26,13,20,8.10
2013,11,26,13,21,8.10
2013,11,26,13,22,8.10
2013,11,26,13,23,8.00
2013,11,26,13,24,8.00
2013,11,26,13,25,8.00
2013,11,26,13,26,7.90
2013,11,26,13,27,7.90
2013,11,26,13,28,7.90
2013,11,26,13,29,7.90
2013,11,26,13,30,7.90
2013,11,26,13,31,7.90
2013,11,26,13,32,7.90
2013,11,26,13,33,7.90
2013,11,26,13,34,7.90
2013,11,26,13,35,7.90
2013,11,26,13,36,7.90
2013,11,26,13,37,7.90
2013,11,26,13,38,7.90
2013,11,26,13,39,7.90
2013,11,26,13,40,7.90
2013,11,26,13,41,7.90
2013,11,26,13,42,7.90
2013,11,26,13,43,7.90
2013,11,26,13,44,7.90
2013,11,26,13,45,7.90
2013,11,26,13,46,7.90
2013,11,26,13,47,7.90
2013,11,26,13,48,7.90
2013,11,26,13,49,7.90
2013,11,26,13,50,7.90
2013,11,26,13,51,7.90
2013,11,26,13,52,7.90
2013,11,26,13,53,7.90
2013,11,26,13,54,7.90
2013,11,26,13,55,7.90
2013,11,26,13,56,7.90
2013,11,26,13,57,7.90
2013,11,26,13,58,7.90
2013,11,26,13,59,7.90
2013,11,26,14,00,7.90
2013,11,26,14,01,7.90
2013,11,26,14,02,7.90
2013,11,26,14,03,7.90
2013,11,26,14,04,7.90
2013,11,26,14,05,7.80
2013,11,26,14,06,7.90
2013,11,26,14,07,7.90
2013,11,26,14,08,7.90
2013,11,26,14,09,7.90
2013,11,26,14,10,7.90
2013,11,26,14,11,7.90
2013,11,26,14,12,8.00
2013,11,26,14,13,8.00
2013,11,26,14,14,8.00
2013,11,26,14,15,8.10
2013,11,26,14,16,8.10
2013,11,26,14,17,8.10
2013,11,26,14,18,8.10
2013,11,26,14,19,8.10
2013,11,26,14,20,8.10
2013,11,26,14,21,8.10
2013,11,26,14,22,8.10
2013,11,26,14,23,8.10
2013,11,26,14,24,8.10
2013,11,26,14,25,8.10
2013,11,26,14,26,8.10
2013,11,26,14,27,8.10
2013,11,26,14,28,8.10
2013,11,26,14,29,8.10
2013,11,26,14,30,8.10
2013,11,26,14,31,8.10
2013,11,26,14,32,8.10
2013,11,26,14,33,8.10
2013,11,26,14,34,8.10
2013,11,26,14,35,8.10
2013,11,26,14,36,8.10
2013,11,26,14,37,8.20
2013,11,26,14,38,8.20
2013,11,26,14,39,8.20
2013,11,26,14,40,8.20
2013,11,26,14,41,8.20
2013,11,26,14,42,8.20
2013,11,26,14,43,8.20
2013,11,26,14,44,8.20
2013,11,26,14,45,8.20
2013,11,26,14,46,8.30
2013,11,26,14,47,8.30
2013,11,26,14,48,8.30
2013,11,26,14,49,8.30
2013,11,26,14,50,8.30
2013,11,26,14,51,8.30
2013,11,26,14,52,8.30
2013,11,26,14,53,8.30
2013,11,26,14,54,8.30
2013,11,26,14,55,8.30
2013,11,26,14,56,8.30
2013,11,26,14,57,8.30
2013,11,26,14,58,8.30
2013,11,26,14,59,8.30
2013,11,26,15,00,8.30
2013,11,26,15,01,8.30
2013,11,26,15,02,8.30
2013,11,26,15,03,8.30
2013,11,26,15,04,8.30
2013,11,26,15,05,8.30
2013,11,26,15,06,8.30
2013,11,26,15,07,8.20
2013,11,26,15,08,8.20
2013,11,26,15,09,8.20
2013,11,26,15,10,8.20
2013,11,26,15,11,8.20
2013,11,26,15,12,8.20
2013,11,26,15,13,8.20
2013,11,26,15,14,8.20
2013,11,26,15,15,8.20
2013,11,26,15,16,8.20
2013,11,26,15,17,8.20
2013,11,26,15,18,8.20
2013,11,26,15,19,8.20
2013,11,26,15,20,8.30
2013,11,26,15,21,8.30
2013,11,26,15,22,8.30
2013,11,26,15,23,8.30
2013,11,26,15,24,8.30
2013,11,26,15,25,8.30
2013,11,26,15,26,8.30
2013,11,26,15,27,8.30
2013,11,26,15,28,8.30
2013,11,26,15,29,8.30
2013,11,26,15,30,8.30
2013,11,26,15,31,8.30
2013,11,26,15,32,8.30
2013,11,26,15,33,8.30
2013,11,26,15,34,8.40
2013,11,26,15,35,8.40
2013,11,26,15,36,8.40
2013,11,26,15,37,8.40
2013,11,26,15,38,8.40
2013,11,26,15,39,8.40
2013,11,26,15,40,8.40
2013,11,26,15,41,8.40
2013,11,26,15,42,8.40
2013,11,26,15,43,8.40
2013,11,26,15,44,8.40
2013,11,26,15,45,8.40
2013,11,26,15,46,8.40
2013,11,26,15,47,8.50
2013,11,26,15,48,8.50
2013,11,26,15,49,8.50
2013,11,26,15,50,8.60
2013,11,26,15,51,8.60
2013,11,26,15,52,8.60
2013,11,26,15,53,8.60
2013,11,26,15,54,8.60
2013,11,26,15,55,8.60
2013,11,26,15,56,8.60
2013,11,26,15,57,8.60
2013,11,26,15,58,8.60
2013,11,26,15,59,8.60
2013,11,26,16,00,8.60
2013,11,26,16,01,8.60
2013,11,26,16,02,8.60
2013,11,26,16,03,8.60
2013,11,26,16,04,8.60
2013,11,26,16,05,8.60
2013,11,26,16,06,8.60
2013,11,26,16,07,8.60
2013,11,26,16,08,8.60
2013,11,26,16,09,8.60
2013,11,26,16,10,8.60
2013,11,26,16,11,8.60
2013,11,26,16,12,8.60
2013,11,26,16,13,8.60
2013,11,26,16,14,8.60
2013,11,26,16,15,8.60
2013,11,26,16,16,8.60
2013,11,26,16,17,8.60
2013,11,26,16,18,8.60
2013,11,26,16,19,8.60
2013,11,26,16,20,8.60
2013,11,26,16,21,8.60
2013,11,26,16,22,8.60
2013,11,26,16,23,8.60
2013,11,26,16,24,8.50
2013,11,26,16,25,8.50
2013,11,26,16,26,8.50
2013,11,26,16,27,8.50
2013,11,26,16,28,8.40
2013,11,26,16,29,8.40
2013,11,26,16,30,8.40
2013,11,26,16,31,8.40
2013,11,26,16,32,8.40
2013,11,26,16,33,8.30
2013,11,26,16,34,8.30
2013,11,26,16,35,8.30
2013,11,26,16,36,8.30
2013,11,26,16,37,8.30
2013,11,26,16,38,8.30
2013,11,26,16,39,8.30
2013,11,26,16,40,8.30
2013,11,26,16,41,8.30
2013,11,26,16,42,8.30
2013,11,26,16,43,8.30
2013,11,26,16,44,8.30
2013,11,26,16,45,8.30
2013,11,26,16,46,8.20
2013,11,26,16,47,8.20
2013,11,26,16,48,8.20
2013,11,26,16,49,8.20
2013,11,26,16,50,8.20
2013,11,26,16,51,8.20
2013,11,26,16,52,8.20
2013,11,26,16,53,8.20
2013,11,26,16,54,8.30
2013,11,26,16,55,8.30
2013,11,26,16,56,8.30
2013,11,26,16,57,8.30
2013,11,26,16,58,8.30
2013,11,26,16,59,8.30
2013,11,26,17,00,8.30
2013,11,26,17,01,8.30
2013,11,26,17,02,8.30
2013,11,26,17,03,8.30
2013,11,26,17,04,8.30
2013,11,26,17,05,8.30
2013,11,26,17,06,8.30
2013,11,26,17,07,8.30
2013,11,26,17,08,8.30
2013,11,26,17,09,8.30
2013,11,26,17,10,8.20
2013,11,26,17,11,8.20
2013,11,26,17,12,8.30
2013,11,26,17,13,8.30
2013,11,26,17,14,8.30
2013,11,26,17,15,8.30
2013,11,26,17,16,8.30
2013,11,26,17,17,8.30
2013,11,26,17,18,8.30
2013,11,26,17,19,8.30
2013,11,26,17,20,8.30
2013,11,26,17,21,8.30
2013,11,26,17,22,8.30
2013,11,26,17,23,8.30
2013,11,26,17,24,8.30
2013,11,26,17,25,8.30
2013,11,26,17,26,8.30
2013,11,26,17,27,8.30
2013,11,26,17,28,8.30
2013,11,26,17,29,8.30
2013,11,26,17,30,8.30
2013,11,26,17,31,8.30
2013,11,26,17,32,8.30
2013,11,26,17,33,8.30
2013,11,26,17,34,8.30
2013,11,26,17,35,8.30
2013,11,26,17,36,8.30
2013,11,26,17,37,8.30
2013,11,26,17,38,8.30
2013,11,26,17,39,8.30
2013,11,26,17,40,8.30
2013,11,26,17,41,8.30
2013,11,26,17,42,8.30
2013,11,26,17,43,8.30
2013,11,26,17,44,8.30
2013,11,26,17,45,8.40
2013,11,26,17,46,8.40
2013,11,26,17,47,8.40
2013,11,26,17,48,8.40
2013,11,26,17,49,8.40
2013,11,26,17,50,8.40
2013,11,26,17,51,8.50
2013,11,26,17,52,8.50
2013,11,26,17,53,8.50
2013,11,26,17,54,8.50
2013,11,26,17,55,8.60
2013,11,26,17,56,8.60
2013,11,26,17,57,8.70
2013,11,26,17,58,8.70
2013,11,26,17,59,8.70
2013,11,26,18,00,8.70
2013,11,26,18,01,8.70
2013,11,26,18,02,8.70
2013,11,26,18,03,8.70
2013,11,26,18,04,8.80
2013,11,26,18,05,8.80
2013,11,26,18,06,8.80
2013,11,26,18,07,8.80
2013,11,26,18,08,8.80